SCP
0 0 0 0 0 0 0 0 0 -0 -0 0 0 0 0 0 0 0 0 0 0 0 0 0 0 0 0 0 0 0 -0 0 0 0 -0 0 0 0 0 0 0 0 0 0
0 0 0 0 0 0 0 0 0 0 0 0 0 0 0 0 0 0 0 0 0 0 0 0 0 0 0 0 0 0 0 0 0 0 0 0 0 0 0 0 0 0 0 0
0 0 0 0 0 0 0 0 0 0 0 0 0 0 0 0 0 0 0 0 0 0 0 0 0 0 -0 -0 0 0 0 0 0 0 0 0 0 0 0 0 0 0 0 0
0 0 0 0 0 0 0 0 0 0 0 0 0 0 0 0 0 0 0 0 0 0 0 0 -0 -0 -0 0 0 0 0 0 0 0 0 0 0 0 0 0 0 0 0 0
0 0 0 0 0 0 0 0 0 0 0 0 0 0 0 0 0 0 0 0 0 0 0 0 -0 -0 -0 -0 -0 0 0 0 0 0 0 0 0 0 0 0 0 0 0 0
0 0 0 0 0 0 0 0 0 0 0 0 0 0 0 0 0 0 0 0 -0 -0 0 -0 -0 -0 -0 -0 -0 -0 0 0 0 0 0 0 0 0 -0 -0 -0 -0 0 0
0 0 0 0 0 0 -0 -0 0 0 0 0 0 0 0 0 0 0 0 0 0 0 -0 -0 -0 -0 -0 -0 -0 0 -0 -0 0 0 0 0 -0 -0 -0 -0 -0 0 -0 -0
0 0 0 0 0 0 -0 -0 0 0 0 0 0 0 0 0 0 0 0 0 -0 -0 -0 -0 -0 -0 -0 -0 0 -0 -0 0 0 0 -0 -0 0 0 0 0 0 0 0 0
0 0 0 0 0 -0 -0 -0 -0 -0 0 0 0 0 0 0 0 0 0 0 0 0 -0 -0 -0 -0 -0 -0 -0 0 0 0 0 0 0 0 0 0 0 0 0 0 0 0
0 0 0 0 -0 -0 -0 -0 -0 -0 -0 -0 -0 -0 -0 -0 -0 -0 -0 -0 -0 0 0 0 0 0 -0 -0 -0 0 -0 0 0 0 0 0 0 0 0 0 0 -0 -0 -0
0 -0 -0 -0 -0 0 -0 -0 0 -0 -0 0 0 0 0 -0 -0 -0 -0 -0 -0 0 0 -0 -0 -0 -0 -0 -0 0 0 -0 0 0 0 0 0 -0 -0 -0 -0 -0 -0 -0
0 0 0 0 0 0 0 -0 0 0 0 0 0 0 0 0 0 0 0 0 0 0 0 0 0 0 0 0 -0 0 0 0 -0 -0 -0 -0 -0 -0 -0 -0 0 0 0 -0
0 0 0 0 -0 0 -0 0 0 0 0 0 0 0 0 0 0 0 0 0 0 0 0 0 0 0 0 0 0 0 -0 -0 -0 -0 -0 -0 -0 -0 0 -0 -0 0 0 0
0 -0 0 0 0 -0 -0 0 0 0 0 0 0 0 0 0 0 0 0 0 0 0 0 0 0 0 0 0 0 0 0 0 -0 -0 -0 -0 -0 -0 -0 0 0 0 -0 0
0 0 0 0 -0 -0 0 0 0 -0 0 0 0 0 -0 -0 -0 -0 0 0 0 0 0 0 0 0 0 0 0 0 0 0 -0 -0 -0 -0 -0 -0 -0 -0 -0 -0 -0 -0
-0 -0 0 -0 -0 -0 0 0 0 -0 0 0 0 -0 -0 -0 -0 -0 -0 0 0 0 0 0 0 0 0 0 0 0 0 0 0 0 0 0 0 0 0 0 -0 -0 -0 -0
-0 -0 -0 0 -0 -0 -0 0 0 0 0 0 0 0 0 0 0 0 0 0 0 0 0 0 0 0 0 0 0 0 0 0 0 0 0 0 0 0 0 0 0 0 -0 -0
0 -0 -0 -0 -0 -0 0 0 0 0 0 0 0 0 0 0 0 0 0 0 0 0 0 0 0 0 0 0 0 0 0 0 0 0 0 0 0 0 0 0 0 0 0 0
0 0 0 0 0 0 0 0 0 0 0 0 0 0 0 0 0 0 0 0 0 0 0 0 0 0 0 0 0 0 0 0 0 0 0 0 0 0 0 0 0 0 0 0
0 0 0 0 0 0 0 0 0 0 0 0 0 0 0 0 0 0 0 0 0 0 0 0 0 0 0 0 0 0 0 0 0 0 0 0 0 0 0 0 0 0 0 0
0 0 0 0 0 0 0 0 0 0 0 0 0 0 0 0 0 0 0 0 0 0 0 0 0 0 0 0 0 0 0 0 0 0 0 0 0 0 0 0 0 0 0 0
0 0 0 0 0 0 0 0 0 0 0 0 0 0 0 0 0 0 0 0 0 0 0 0 0 0 0 0 0 0 0 0 0 0 0 0 0 0 0 0 0 0 0 0
0 0 0 0 0 0 0 0 0 0 0 0 0 0 0 0 0 0 0 0 0 0 0 0 0 0 0 0 0 0 0 0 0 0 0 0 0 0 0 0 0 0 0 0
0 0 0 0 0 0 0 0 0 0 0 0 0 0 0 0 0 0 0 0 0 0 0 0 0 0 0 0 0 0 0 0 0 0 0 0 0 0 0 0 0 0 0 0
0 0 0 0 0 0 0 0 0 0 0 0 0 0 0 0 0 0 0 0 0 0 0 0 0 0 0 0 0 0 0 0 0 0 0 0 0 0 0 0 0 0 0 0
0 0 0 0 0 0 0 0 0 0 0 0 0 0 0 0 0 0 0 0 0 0 0 0 0 0 0 0 0 0 0 0 0 0 0 0 0 0 0 0 0 0 0 0
0 0 0 0 0 0 0 0 0 0 0 0 0 0 0 0 0 0 0 0 0 0 0 0 0 0 0 0 0 0 0 0 0 0 0 0 0 0 0 0 0 0 0 0
Wind_Speed_500mb
8 6 2 26 29 38 34 20 10 16 17 30 32 33 49 56 60 56 69 78 79 80 87 86 90 99 101 102 97 95 97 98 95 87 82 80 79 75 72 70 70 66 65 66
8 4 4 16 36 30 26 20 9 17 9 27 41 48 63 62 59 60 65 71 76 79 86 88 93 98 101 100 97 95 99 97 86 81 80 79 74 72 70 71 69 65 64 64
10 18 8 17 32 20 15 24 6 12 11 25 25 38 50 54 56 66 70 71 78 79 82 83 88 94 97 95 90 91 91 86 81 78 79 77 72 70 72 71 65 66 67 62
5 14 18 9 8 4 15 27 27 9 16 13 4 29 58 66 64 67 70 76 77 78 82 84 89 89 86 84 86 88 87 82 77 74 75 72 71 71 70 65 65 63 61 59
7 4 4 5 12 9 9 17 22 17 28 31 7 15 59 64 60 56 56 63 70 74 79 82 86 85 85 85 84 84 82 79 74 70 72 69 70 69 66 60 61 59 57 55
7 10 4 8 4 7 5 17 26 36 33 32 22 22 9 46 50 55 57 62 70 74 74 75 77 75 80 82 81 84 78 76 71 68 69 67 64 61 58 58 61 59 60 58
3 5 12 9 20 5 11 6 16 19 23 29 10 15 15 29 41 49 56 60 63 68 74 74 69 71 81 80 83 76 71 69 66 63 62 61 59 60 59 60 58 58 56 56
5 8 6 4 0 13 13 18 14 13 15 19 22 23 27 35 41 47 53 56 60 64 68 67 67 66 75 79 70 64 63 62 61 60 58 56 56 57 56 54 55 54 54 56
9 9 3 1 18 32 27 27 19 15 15 18 23 26 31 36 40 45 50 55 57 62 63 63 63 63 69 67 57 55 55 57 56 52 52 52 51 51 52 55 56 54 52 50
5 9 13 17 22 27 27 24 24 22 22 24 30 30 33 35 39 42 46 49 52 53 58 61 57 58 61 55 49 46 51 53 52 51 51 51 51 51 49 49 51 53 54 57
7 5 7 25 34 33 32 30 30 28 27 30 29 31 30 33 36 39 42 44 44 48 53 55 52 53 51 45 40 43 49 51 50 49 48 47 47 48 49 49 49 51 54 57
11 45 16 41 53 46 44 42 38 38 39 34 29 30 31 33 35 37 39 39 39 41 43 46 44 46 46 41 35 35 43 47 48 46 45 43 41 40 42 44 45 50 57 62
3 52 18 43 51 50 48 47 44 40 35 38 36 31 31 33 35 36 36 36 35 37 37 37 36 37 39 35 30 34 42 43 40 40 41 41 42 42 43 44 48 55 63 65
21 67 33 58 59 55 49 47 44 41 39 37 34 36 32 31 35 35 34 33 32 31 30 30 28 27 31 31 27 29 31 34 37 40 43 46 48 50 50 52 54 59 63 65
51 61 44 56 53 61 56 54 54 52 50 49 44 38 37 34 33 33 33 32 32 30 27 26 24 21 20 21 19 18 23 29 35 39 42 45 49 50 52 54 57 63 66 65
70 59 40 58 61 67 64 62 58 58 56 53 51 47 40 36 35 35 35 33 29 27 25 22 20 17 15 14 14 13 16 23 30 34 39 43 46 50 53 56 59 65 68 66
80 60 53 66 72 76 75 64 59 57 55 56 52 50 50 46 42 39 37 36 32 30 25 22 21 19 15 11 8 6 10 17 22 30 37 42 48 52 55 57 59 66 68 65
84 75 79 71 81 78 74 68 62 59 57 52 54 55 54 50 42 40 39 37 35 34 32 28 25 22 19 15 10 5 4 10 19 27 34 40 46 52 56 57 59 65 65 61
80 69 62 67 64 70 67 66 63 58 57 57 59 59 52 45 44 43 43 42 40 38 34 32 28 25 23 20 16 12 9 12 17 25 33 40 46 51 56 56 59 65 64 59
80 75 52 54 56 61 64 62 61 62 61 61 61 60 58 57 57 54 51 45 35 31 37 35 32 30 27 24 20 16 14 15 18 24 31 37 44 50 55 56 60 66 64 58
82 78 64 55 53 53 58 61 64 68 67 67 67 64 61 61 60 58 57 54 45 45 44 40 38 34 29 25 23 20 18 19 20 24 30 38 44 50 55 55 61 65 62 57
69 81 73 61 55 52 54 62 64 67 68 67 65 65 64 65 65 63 57 50 46 44 43 41 39 36 31 27 25 23 22 21 22 26 32 39 45 51 55 54 60 63 60 56
54 73 72 68 61 53 53 56 64 67 68 68 68 67 68 66 65 66 62 56 55 50 45 43 41 40 35 28 26 25 22 22 24 28 33 40 46 52 53 54 60 63 58 54
46 52 70 64 63 61 62 61 61 64 66 67 66 63 65 67 66 63 57 52 53 50 44 44 44 43 36 31 29 26 23 23 26 30 35 40 46 51 50 54 59 59 55 51
39 40 59 71 70 68 59 55 57 61 66 69 68 66 63 63 63 55 55 55 55 53 49 47 45 44 38 34 32 30 24 24 28 32 36 41 46 48 47 53 58 58 52 48
33 37 45 58 65 62 58 56 57 58 63 67 68 67 65 64 62 60 57 58 56 52 49 48 47 43 43 39 38 29 24 25 29 33 36 40 45 44 46 52 56 56 50 45
29 34 39 47 55 58 59 57 56 54 54 59 62 61 63 63 63 62 62 58 57 54 51 49 48 45 44 39 35 30 27 22 28 33 36 40 41 41 46 52 55 54 48 42
Wind_Direction_500mb
257 233 333 29 22 24 39 13 46 331 16 356 360 349 349 356 10 26 39 48 58 64 82 80 86 95 98 100 99 99 96 93 91 92 93 92 90 90 90 88 88 88 89 87
298 329 227 37 29 29 39 14 16 345 30 354 4 9 9 4 12 27 37 46 63 71 84 85 92 96 98 98 98 97 94 93 95 94 92 89 89 89 89 88 87 84 79 77
325 341 73 15 16 22 44 38 304 22 315 332 12 14 12 9 20 28 41 49 70 76 85 90 92 96 98 99 99 96 94 94 93 92 89 88 87 85 82 79 78 79 80 78
297 348 38 333 29 120 70 39 26 15 353 333 70 49 34 33 30 46 62 69 75 83 88 92 95 96 97 96 94 93 92 91 90 89 89 89 85 82 80 79 76 75 74 73
83 30 270 2 5 4 13 31 20 1 3 2 217 79 37 39 53 60 70 80 84 87 92 96 97 98 98 95 92 90 89 89 89 88 86 83 80 78 76 74 72 68 66 65
42 90 72 232 286 326 269 39 21 18 11 6 15 70 342 36 58 70 76 83 89 93 93 93 92 95 94 92 92 91 92 91 89 87 83 80 78 76 75 73 72 68 63 58
42 117 286 250 307 126 71 213 71 49 50 49 52 82 56 62 73 78 83 86 90 91 89 91 93 94 91 89 88 90 90 88 86 83 80 79 80 77 72 68 66 62 56 49
92 70 339 235 289 129 160 134 117 99 83 84 92 97 92 89 89 91 91 92 91 92 92 93 92 90 89 87 88 87 84 81 80 78 76 73 70 69 67 63 58 54 48 40
176 207 241 97 115 128 137 142 150 137 123 119 115 108 104 98 97 96 96 97 97 97 97 95 92 89 88 88 89 88 83 78 75 73 72 72 69 65 60 53 47 41 37 31
74 232 225 185 154 154 159 159 158 153 148 143 130 123 115 111 108 106 105 105 104 104 101 98 94 90 88 90 87 83 79 76 73 69 65 60 56 53 50 48 40 34 30 24
262 275 228 220 200 181 173 168 163 160 156 151 145 135 130 124 120 117 115 113 113 107 103 100 98 96 92 87 82 78 74 71 68 64 61 56 51 48 44 40 32 26 23 18
215 189 177 194 186 183 181 176 173 169 164 162 156 146 141 133 129 126 124 122 119 114 111 109 109 105 98 87 76 73 76 73 69 65 61 56 51 46 43 37 29 23 19 16
236 175 169 166 179 182 181 178 175 174 175 167 163 161 151 145 140 137 134 131 127 122 117 115 113 109 104 98 86 75 71 70 68 64 58 51 46 41 39 35 26 20 14 12
181 165 152 170 179 183 184 180 179 178 178 177 173 166 166 161 154 150 146 142 139 133 129 129 129 122 113 101 84 70 67 66 60 53 45 39 33 28 23 19 16 14 10 8
181 182 194 179 180 182 185 187 186 187 185 184 182 181 176 173 168 162 161 159 155 150 149 143 143 137 123 112 99 79 67 58 52 43 36 30 25 21 17 14 12 9 6 5
183 188 180 189 186 187 190 194 196 193 192 191 189 185 182 180 182 176 174 173 169 162 165 164 164 165 155 139 117 83 59 50 42 33 26 21 17 14 11 9 7 5 3 2
176 185 184 189 193 195 199 201 201 200 196 198 194 190 191 189 189 188 185 185 182 179 184 187 184 187 181 170 147 97 45 37 28 21 16 12 10 7 6 4 3 3 2 0
206 207 203 204 198 199 201 203 204 203 204 202 198 200 200 201 198 194 192 195 196 196 196 199 200 200 205 206 204 220 328 4 11 9 5 5 3 2 360 360 0 359 359 357
209 214 212 213 209 206 205 204 205 206 206 206 206 210 210 206 203 203 204 206 208 209 206 207 209 211 218 222 227 241 281 324 348 354 355 357 357 356 354 356 356 356 355 354
209 211 214 216 215 212 210 208 209 208 208 209 210 212 212 209 209 210 212 216 219 215 215 216 215 219 223 227 237 252 273 302 326 337 344 349 351 349 350 352 352 352 352 351
208 210 211 212 214 214 215 216 212 212 212 213 215 216 216 214 214 216 217 217 214 216 220 220 220 224 227 233 243 256 273 292 310 324 336 342 344 343 346 348 349 349 348 348
208 210 212 214 213 213 214 214 217 219 218 219 219 218 219 217 219 222 223 227 222 224 225 226 226 226 229 233 243 254 268 286 305 320 331 335 336 338 342 345 345 346 345 346
212 211 212 216 217 217 217 217 218 220 222 224 225 224 223 225 227 224 224 222 219 223 225 227 229 227 227 231 242 253 269 289 304 316 323 328 331 335 339 342 343 343 343 343
216 218 216 219 221 224 224 223 225 225 225 226 229 230 230 228 227 228 228 229 229 230 231 230 231 227 223 231 243 255 272 288 302 310 317 323 327 332 336 339 341 341 341 341
226 228 221 220 222 226 230 232 232 230 228 227 228 229 231 232 232 236 232 227 225 226 227 228 228 223 226 233 239 248 264 284 296 302 311 318 323 329 334 337 339 340 339 339
234 236 233 231 233 235 238 239 239 238 235 233 232 230 230 230 229 227 225 225 227 228 228 228 227 220 236 232 238 241 252 270 286 296 307 315 322 329 332 335 338 338 337 337
246 241 237 235 235 237 238 241 245 247 246 244 241 238 234 231 229 226 225 226 226 226 226 226 221 233 240 237 237 238 249 262 283 295 305 315 323 327 332 335 336 336 335 337
Wind_Speed_850mb
8 6 2 26 29 38 34 20 10 16 17 30 32 33 49 56 60 56 69 78 79 80 87 86 90 99 101 102 97 95 97 98 95 87 82 80 79 75 72 70 70 66 65 66
8 4 4 16 36 30 26 20 9 17 9 27 41 48 63 62 59 60 65 71 76 79 86 88 93 98 101 100 97 95 99 97 86 81 80 79 74 72 70 71 69 65 64 64
10 18 8 17 32 20 15 24 6 12 11 25 25 38 50 54 56 66 70 71 78 79 82 83 88 94 97 95 90 91 91 86 81 78 79 77 72 70 72 71 65 66 67 62
5 14 18 9 8 4 15 27 27 9 16 13 4 29 58 66 64 67 70 76 77 78 82 84 89 89 86 84 86 88 87 82 77 74 75 72 71 71 70 65 65 63 61 59
7 4 4 5 12 9 9 17 22 17 28 31 7 15 59 64 60 56 56 63 70 74 79 82 86 85 85 85 84 84 82 79 74 70 72 69 70 69 66 60 61 59 57 55
7 10 4 8 4 7 5 17 26 36 33 32 22 22 9 46 50 55 57 62 70 74 74 75 77 75 80 82 81 84 78 76 71 68 69 67 64 61 58 58 61 59 60 58
3 5 12 9 20 5 11 6 16 19 23 29 10 15 15 29 41 49 56 60 63 68 74 74 69 71 81 80 83 76 71 69 66 63 62 61 59 60 59 60 58 58 56 56
5 8 6 4 0 13 13 18 14 13 15 19 22 23 27 35 41 47 53 56 60 64 68 67 67 66 75 79 70 64 63 62 61 60 58 56 56 57 56 54 55 54 54 56
9 9 3 1 18 32 27 27 19 15 15 18 23 26 31 36 40 45 50 55 57 62 63 63 63 63 69 67 57 55 55 57 56 52 52 52 51 51 52 55 56 54 52 50
5 9 13 17 22 27 27 24 24 22 22 24 30 30 33 35 39 42 46 49 52 53 58 61 57 58 61 55 49 46 51 53 52 51 51 51 51 51 49 49 51 53 54 57
7 5 7 25 34 33 32 30 30 28 27 30 29 31 30 33 36 39 42 44 44 48 53 55 52 53 51 45 40 43 49 51 50 49 48 47 47 48 49 49 49 51 54 57
11 45 16 41 53 46 44 42 38 38 39 34 29 30 31 33 35 37 39 39 39 41 43 46 44 46 46 41 35 35 43 47 48 46 45 43 41 40 42 44 45 50 57 62
3 52 18 43 51 50 48 47 44 40 35 38 36 31 31 33 35 36 36 36 35 37 37 37 36 37 39 35 30 34 42 43 40 40 41 41 42 42 43 44 48 55 63 65
21 67 33 58 59 55 49 47 44 41 39 37 34 36 32 31 35 35 34 33 32 31 30 30 28 27 31 31 27 29 31 34 37 40 43 46 48 50 50 52 54 59 63 65
51 61 44 56 53 61 56 54 54 52 50 49 44 38 37 34 33 33 33 32 32 30 27 26 24 21 20 21 19 18 23 29 35 39 42 45 49 50 52 54 57 63 66 65
70 59 40 58 61 67 64 62 58 58 56 53 51 47 40 36 35 35 35 33 29 27 25 22 20 17 15 14 14 13 16 23 30 34 39 43 46 50 53 56 59 65 68 66
80 60 53 66 72 76 75 64 59 57 55 56 52 50 50 46 42 39 37 36 32 30 25 22 21 19 15 11 8 6 10 17 22 30 37 42 48 52 55 57 59 66 68 65
84 75 79 71 81 78 74 68 62 59 57 52 54 55 54 50 42 40 39 37 35 34 32 28 25 22 19 15 10 5 4 10 19 27 34 40 46 52 56 57 59 65 65 61
80 69 62 67 64 70 67 66 63 58 57 57 59 59 52 45 44 43 43 42 40 38 34 32 28 25 23 20 16 12 9 12 17 25 33 40 46 51 56 56 59 65 64 59
80 75 52 54 56 61 64 62 61 62 61 61 61 60 58 57 57 54 51 45 35 31 37 35 32 30 27 24 20 16 14 15 18 24 31 37 44 50 55 56 60 66 64 58
82 78 64 55 53 53 58 61 64 68 67 67 67 64 61 61 60 58 57 54 45 45 44 40 38 34 29 25 23 20 18 19 20 24 30 38 44 50 55 55 61 65 62 57
69 81 73 61 55 52 54 62 64 67 68 67 65 65 64 65 65 63 57 50 46 44 43 41 39 36 31 27 25 23 22 21 22 26 32 39 45 51 55 54 60 63 60 56
54 73 72 68 61 53 53 56 64 67 68 68 68 67 68 66 65 66 62 56 55 50 45 43 41 40 35 28 26 25 22 22 24 28 33 40 46 52 53 54 60 63 58 54
46 52 70 64 63 61 62 61 61 64 66 67 66 63 65 67 66 63 57 52 53 50 44 44 44 43 36 31 29 26 23 23 26 30 35 40 46 51 50 54 59 59 55 51
39 40 59 71 70 68 59 55 57 61 66 69 68 66 63 63 63 55 55 55 55 53 49 47 45 44 38 34 32 30 24 24 28 32 36 41 46 48 47 53 58 58 52 48
33 37 45 58 65 62 58 56 57 58 63 67 68 67 65 64 62 60 57 58 56 52 49 48 47 43 43 39 38 29 24 25 29 33 36 40 45 44 46 52 56 56 50 45
29 34 39 47 55 58 59 57 56 54 54 59 62 61 63 63 63 62 62 58 57 54 51 49 48 45 44 39 35 30 27 22 28 33 36 40 41 41 46 52 55 54 48 42
Wind_Direction_850mb
257 233 333 29 22 24 39 13 46 331 16 356 360 349 349 356 10 26 39 48 58 64 82 80 86 95 98 100 99 99 96 93 91 92 93 92 90 90 90 88 88 88 89 87
298 329 227 37 29 29 39 14 16 345 30 354 4 9 9 4 12 27 37 46 63 71 84 85 92 96 98 98 98 97 94 93 95 94 92 89 89 89 89 88 87 84 79 77
325 341 73 15 16 22 44 38 304 22 315 332 12 14 12 9 20 28 41 49 70 76 85 90 92 96 98 99 99 96 94 94 93 92 89 88 87 85 82 79 78 79 80 78
297 348 38 333 29 120 70 39 26 15 353 333 70 49 34 33 30 46 62 69 75 83 88 92 95 96 97 96 94 93 92 91 90 89 89 89 85 82 80 79 76 75 74 73
83 30 270 2 5 4 13 31 20 1 3 2 217 79 37 39 53 60 70 80 84 87 92 96 97 98 98 95 92 90 89 89 89 88 86 83 80 78 76 74 72 68 66 65
42 90 72 232 286 326 269 39 21 18 11 6 15 70 342 36 58 70 76 83 89 93 93 93 92 95 94 92 92 91 92 91 89 87 83 80 78 76 75 73 72 68 63 58
42 117 286 250 307 126 71 213 71 49 50 49 52 82 56 62 73 78 83 86 90 91 89 91 93 94 91 89 88 90 90 88 86 83 80 79 80 77 72 68 66 62 56 49
92 70 339 235 289 129 160 134 117 99 83 84 92 97 92 89 89 91 91 92 91 92 92 93 92 90 89 87 88 87 84 81 80 78 76 73 70 69 67 63 58 54 48 40
176 207 241 97 115 128 137 142 150 137 123 119 115 108 104 98 97 96 96 97 97 97 97 95 92 89 88 88 89 88 83 78 75 73 72 72 69 65 60 53 47 41 37 31
74 232 225 185 154 154 159 159 158 153 148 143 130 123 115 111 108 106 105 105 104 104 101 98 94 90 88 90 87 83 79 76 73 69 65 60 56 53 50 48 40 34 30 24
262 275 228 220 200 181 173 168 163 160 156 151 145 135 130 124 120 117 115 113 113 107 103 100 98 96 92 87 82 78 74 71 68 64 61 56 51 48 44 40 32 26 23 18
215 189 177 194 186 183 181 176 173 169 164 162 156 146 141 133 129 126 124 122 119 114 111 109 109 105 98 87 76 73 76 73 69 65 61 56 51 46 43 37 29 23 19 16
236 175 169 166 179 182 181 178 175 174 175 167 163 161 151 145 140 137 134 131 127 122 117 115 113 109 104 98 86 75 71 70 68 64 58 51 46 41 39 35 26 20 14 12
181 165 152 170 179 183 184 180 179 178 178 177 173 166 166 161 154 150 146 142 139 133 129 129 129 122 113 101 84 70 67 66 60 53 45 39 33 28 23 19 16 14 10 8
181 182 194 179 180 182 185 187 186 187 185 184 182 181 176 173 168 162 161 159 155 150 149 143 143 137 123 112 99 79 67 58 52 43 36 30 25 21 17 14 12 9 6 5
183 188 180 189 186 187 190 194 196 193 192 191 189 185 182 180 182 176 174 173 169 162 165 164 164 165 155 139 117 83 59 50 42 33 26 21 17 14 11 9 7 5 3 2
176 185 184 189 193 195 199 201 201 200 196 198 194 190 191 189 189 188 185 185 182 179 184 187 184 187 181 170 147 97 45 37 28 21 16 12 10 7 6 4 3 3 2 0
206 207 203 204 198 199 201 203 204 203 204 202 198 200 200 201 198 194 192 195 196 196 196 199 200 200 205 206 204 220 328 4 11 9 5 5 3 2 360 360 0 359 359 357
209 214 212 213 209 206 205 204 205 206 206 206 206 210 210 206 203 203 204 206 208 209 206 207 209 211 218 222 227 241 281 324 348 354 355 357 357 356 354 356 356 356 355 354
209 211 214 216 215 212 210 208 209 208 208 209 210 212 212 209 209 210 212 216 219 215 215 216 215 219 223 227 237 252 273 302 326 337 344 349 351 349 350 352 352 352 352 351
208 210 211 212 214 214 215 216 212 212 212 213 215 216 216 214 214 216 217 217 214 216 220 220 220 224 227 233 243 256 273 292 310 324 336 342 344 343 346 348 349 349 348 348
208 210 212 214 213 213 214 214 217 219 218 219 219 218 219 217 219 222 223 227 222 224 225 226 226 226 229 233 243 254 268 286 305 320 331 335 336 338 342 345 345 346 345 346
212 211 212 216 217 217 217 217 218 220 222 224 225 224 223 225 227 224 224 222 219 223 225 227 229 227 227 231 242 253 269 289 304 316 323 328 331 335 339 342 343 343 343 343
216 218 216 219 221 224 224 223 225 225 225 226 229 230 230 228 227 228 228 229 229 230 231 230 231 227 223 231 243 255 272 288 302 310 317 323 327 332 336 339 341 341 341 341
226 228 221 220 222 226 230 232 232 230 228 227 228 229 231 232 232 236 232 227 225 226 227 228 228 223 226 233 239 248 264 284 296 302 311 318 323 329 334 337 339 340 339 339
234 236 233 231 233 235 238 239 239 238 235 233 232 230 230 230 229 227 225 225 227 228 228 228 227 220 236 232 238 241 252 270 286 296 307 315 322 329 332 335 338 338 337 337
246 241 237 235 235 237 238 241 245 247 246 244 241 238 234 231 229 226 225 226 226 226 226 226 221 233 240 237 237 238 249 262 283 295 305 315 323 327 332 335 336 336 335 337